Weather History for Fort Knox, KY

Change the Weather History Date:

Wednesday, December 5, 2012

  Actual Average Record
Temperature  
Mean Temperature 44 °F -  
Max Temperature 55 °F 46 °F 71 °F (2001)
Min Temperature 32 °F 30 °F 15 °F (2002)
Degree Days  
Heating Degree Days 22    
Moisture  
Dew Point 37 °F    
Average Humidity 81    
Maximum Humidity 100    
Minimum Humidity 46    
Precipitation  
Precipitation 0.00 in - - ()
Sea Level Pressure  
Sea Level Pressure 30.28 in    
Wind  
Wind Speed 3 mph (NNE)    
Max Wind Speed 12 mph    
Max Gust Speed -    
Visibility 6 miles    
Events Fog    
Averages and records for this station are not official NWS values.
T = Trace of Precipitation, MM = Missing Value Source: NWS Daily Summary

Daily Weather History Graph

Daily Weather History Graph

Search for Another Location

Airport:

Trip Planner

Search our weather history database for the weather conditions in past years. The results will help you decide how hot, cold, wet, or windy it might be!

Date:

Astronomy

Dec. 05, 2012 Rise Set
Actual Time 7:44 AM EST 5:24 PM EST
Civil Twilight 7:15 AM EST 5:53 PM EST
Nautical Twilight 6:43 AM EST 6:26 PM EST
Astronomical Twilight 6:11 AM EST 6:58 PM EST
Moon No Moon Rise 12:12 PM EST (12/5)
Length of Visible Light 10h 37m
Length of Day
9h 39m
Waning Gibbous, 60% of the Moon is Illuminated
Dec 5
Waning Gibbous
Dec 6
Last Quarter
Dec 13
New
Dec 20
First Quarter
Dec 28
Full

Hourly Weather History & Observations

Time (EST) Temp. Windchill Dew Point Humidity Pressure Visibility Wind Dir Wind Speed Gust Speed Precip Events Conditions
12:55 AM 42.8 °F - 41.4 °F 95% 30.24 in 7.0 mi WSW 1.2 mph - N/A   Scattered Clouds
1:55 AM 41.7 °F - 40.8 °F 97% 30.26 in 3.0 mi WNW 2.3 mph - N/A   Clear
2:24 AM 41.0 °F - 39.2 °F 93% 30.26 in 2.5 mi Calm Calm - N/A   Clear
2:55 AM 40.1 °F - 39.4 °F 97% 30.28 in 2.0 mi South 2.3 mph - N/A   Clear
3:55 AM 37.9 °F - 37.4 °F 98% 30.28 in 1.0 mi Calm Calm - N/A   Clear
4:45 AM 35.6 °F - 35.6 °F 100% 30.27 in 0.5 mi Calm Calm - N/A Fog Fog
4:55 AM 36.7 °F - 36.3 °F 99% 30.29 in 1.0 mi Calm Calm - N/A   Clear
5:32 AM 35.6 °F - 35.6 °F 100% 30.28 in 0.5 mi Calm Calm - N/A Fog Fog
5:55 AM 35.2 °F - 34.7 °F 98% 30.30 in 0.5 mi Calm Calm - N/A Fog Fog
6:55 AM 34.5 °F - 34.3 °F 99% 30.32 in 0.5 mi Calm Calm - N/A Fog Fog
7:55 AM 32.9 °F - 32.7 °F 99% 30.34 in 0.5 mi Calm Calm - N/A Fog Fog
9:55 AM 44.4 °F 42.0 °F 44.4 °F 100% 30.35 in 10.0 mi North 4.6 mph - N/A   Partly Cloudy
10:55 AM 47.5 °F - 47.5 °F 100% 30.35 in 10.0 mi North 5.8 mph - N/A   Clear
11:55 AM 50.5 °F - 48.2 °F 92% 30.33 in 10.0 mi ESE 5.8 mph - N/A   Scattered Clouds
12:55 PM 54.3 °F - 38.7 °F 55% 30.31 in 10.0 mi Calm Calm - N/A   Scattered Clouds
1:55 PM 55.2 °F - 38.5 °F 53% 30.29 in 10.0 mi North 8.1 mph - N/A   Clear
2:55 PM 54.9 °F - 35.4 °F 48% 30.27 in 10.0 mi North 8.1 mph - N/A   Clear
3:55 PM 54.5 °F - 34.0 °F 46% 30.27 in 10.0 mi North 6.9 mph - N/A   Clear
4:55 PM 51.4 °F - 35.8 °F 55% 30.28 in 10.0 mi North 5.8 mph - N/A   Clear
5:55 PM 48.0 °F - 35.2 °F 61% 30.27 in 10.0 mi NNE 4.6 mph - N/A   Clear
6:55 PM 43.9 °F 40.5 °F 34.2 °F 69% 30.27 in 10.0 mi NNE 5.8 mph - N/A   Clear
7:55 PM 45.5 °F 42.5 °F 34.2 °F 65% 30.27 in 10.0 mi NNE 5.8 mph - N/A   Clear
8:55 PM 42.3 °F 39.4 °F 34.2 °F 73% 30.26 in 10.0 mi NE 4.6 mph - N/A   Clear
9:55 PM 42.3 °F 37.9 °F 34.0 °F 72% 30.25 in 10.0 mi ENE 6.9 mph - N/A   Clear
10:55 PM 41.4 °F 36.2 °F 32.9 °F 72% 30.24 in 10.0 mi ENE 8.1 mph - N/A   Clear
11:55 PM 39.7 °F 32.7 °F 32.5 °F 75% 30.23 in 10.0 mi ENE 11.5 mph - N/A   Clear